DW6758 Georgetown SC US current weather conditions

sailwx.info

Wind from 234

Air temperature 7.2° C
Dewpoint -0.3° C

Last reported at 2019-Dec-08 15:00 UTC.
Time now 2019-Dec-08 15:17 UTC

Location: N 33°23' W 079°11'.
View on Google Maps.

See reports from other nearby stations

  
Tides and Currents Weather Stations Pressure Air Temp Water Temp Dewpoint Dewpoint Depression Visibility Wind Speed Wind Dir Waves Ship Positions
date/time (UTC)wind fromknots sea level pressurealtimeterstation pressurevisibilityair tempwater tempwave heightnotes
2019-Dec-08 15:00 234 7.2
2019-Dec-08 14:46 130 0 gusting 2 6.7
2019-Dec-08 14:31 101 0 gusting 5 6.7
2019-Dec-08 14:15 354 6.1
2019-Dec-08 14:00 016 5.6
2019-Dec-08 13:45 147 5.0
2019-Dec-08 13:30 111 4.4
2019-Dec-08 13:15 079 3.3
2019-Dec-08 13:00 120 3.3
2019-Dec-08 12:47
2019-Dec-08 12:32
2019-Dec-08 12:17
2019-Dec-08 12:03
2019-Dec-08 11:46
2019-Dec-08 11:31
2019-Dec-08 11:16
2019-Dec-08 11:01
2019-Dec-08 10:45
2019-Dec-08 10:31
2019-Dec-08 10:16
2019-Dec-08 10:00
2019-Dec-08 09:46
2019-Dec-08 09:30
2019-Dec-08 09:15
2019-Dec-08 09:00
2019-Dec-08 08:47 150 4.4
2019-Dec-08 08:31 088 5.0
2019-Dec-08 08:16 214 5.6
2019-Dec-08 08:01 097 6.1
2019-Dec-08 07:46 098 6.7
2019-Dec-08 07:31 068 7.2
2019-Dec-08 07:15 100 7.8
2019-Dec-08 07:02 088 7.8
2019-Dec-08 06:45 088 8.3
2019-Dec-08 06:31 143 0 gusting 11 8.9
2019-Dec-08 06:16 116 2 gusting 11 8.9
2019-Dec-08 06:01 067 0 gusting 6 8.9
2019-Dec-08 05:45 078 8.9
2019-Dec-08 05:31 112 0 gusting 4 8.9
2019-Dec-08 05:16 156 9.4
2019-Dec-08 05:00 101 9.4
2019-Dec-08 04:45 123 2 gusting 10 9.4
2019-Dec-08 04:30 162 1 gusting 13 9.4
2019-Dec-08 04:15 086 0 gusting 3 8.9
2019-Dec-08 04:00 091 8.9
2019-Dec-08 03:47 084 9.4
2019-Dec-08 03:31 276 10.0
2019-Dec-08 03:16 160 10.0
2019-Dec-08 03:01 347 10.6
2019-Dec-08 02:46 122 0 gusting 5 10.6
2019-Dec-08 02:31 185 0 gusting 6 10.6
2019-Dec-08 02:15 134 10.6
2019-Dec-08 02:00 051 11.1
2019-Dec-08 01:45 323 0 gusting 6 10.6
2019-Dec-08 01:30 138 11.1
2019-Dec-08 01:15 150 11.1
2019-Dec-08 01:00 101 11.7
2019-Dec-08 00:45 319 11.7
2019-Dec-08 00:32 113 11.7
2019-Dec-08 00:16 108 11.7
2019-Dec-08 00:04 123 12.2
2019-Dec-07 23:46 115 12.2
2019-Dec-07 23:32 129 12.2
2019-Dec-07 23:16 086 12.2
2019-Dec-07 23:01 188 0 gusting 3 12.2
2019-Dec-07 22:46 105 12.2
2019-Dec-07 22:30 110 12.8
2019-Dec-07 22:15 117 12.8
2019-Dec-07 22:00 109 13.3
2019-Dec-07 21:45 093 13.3
2019-Dec-07 21:30 109 13.9
2019-Dec-07 21:17 057 13.9
2019-Dec-07 21:01 117 0 gusting 8 14.4
2019-Dec-07 20:46 099 0 gusting 7 14.4
2019-Dec-07 20:31 117 3 gusting 8 15.0
2019-Dec-07 20:16 068 2 gusting 10 15.0
2019-Dec-07 20:01 158 3 gusting 9 15.0
2019-Dec-07 19:45 163 1 gusting 6 15.6
2019-Dec-07 19:30 065 3 gusting 8 15.6
2019-Dec-07 19:15 089 3 gusting 7 15.0
2019-Dec-07 19:00 102 2 gusting 8 15.0
2019-Dec-07 18:45 084 1 gusting 7 15.6
2019-Dec-07 18:30 096 2 gusting 7 15.0
2019-Dec-07 18:15 092 3 gusting 8 15.0
2019-Dec-07 18:00 103 2 gusting 8 15.6
2019-Dec-07 17:46 107 0 gusting 6 15.6
2019-Dec-07 17:32 111 5 gusting 11 15.0
2019-Dec-07 17:01 117 1 gusting 6 15.0
2019-Dec-07 16:46 023 0 gusting 8 14.4
2019-Dec-07 16:30 120 0 gusting 8 14.4
2019-Dec-07 16:16 096 2 gusting 12 14.4
2019-Dec-07 16:01 293 1 gusting 13 14.4
2019-Dec-07 15:46 102 1 gusting 8 14.4
2019-Dec-07 15:30 096 5 gusting 11 13.9
2019-Dec-07 15:15 033 0 gusting 6 13.9
2019-Dec-07 15:00 113 0 12.8
2019-Dec-07 14:45 051 12.2
2019-Dec-07 14:31 143 11.7
2019-Dec-07 14:17 332 10.6
2019-Dec-07 14:02 020 10.0
2019-Dec-07 13:47 212 9.4
2019-Dec-07 13:31 146 8.9
2019-Dec-07 13:16 131 8.3
2019-Dec-07 13:01 131 8.3
2019-Dec-07 12:46
2019-Dec-07 12:30
2019-Dec-07 12:15
2019-Dec-07 12:00
2019-Dec-07 11:45
2019-Dec-07 11:30
2019-Dec-07 11:15
2019-Dec-07 11:02
2019-Dec-07 10:46
2019-Dec-07 10:31
2019-Dec-07 10:16
2019-Dec-07 10:01
2019-Dec-07 09:46
2019-Dec-07 09:30
2019-Dec-07 09:15
2019-Dec-07 09:00
2019-Dec-07 08:45
2019-Dec-07 08:30
2019-Dec-07 08:15
2019-Dec-07 08:00
2019-Dec-07 07:45 328 10.6
2019-Dec-07 07:31 328 11.1
2019-Dec-07 07:16 328 11.1
2019-Dec-07 07:01 328 11.1
2019-Dec-07 06:46 328 11.1
2019-Dec-07 06:31 329 11.1
2019-Dec-07 06:16 329 11.7
2019-Dec-07 06:00 105 11.7
2019-Dec-07 05:45 105 11.7
2019-Dec-07 05:30 112 11.7
2019-Dec-07 05:15 120 11.1
2019-Dec-07 05:00 102 11.1
2019-Dec-07 04:45 102 11.1
2019-Dec-07 04:30 102 11.1
2019-Dec-07 04:17 102 11.1
2019-Dec-07 04:02 136 11.7
2019-Dec-07 03:49 010 11.7
2019-Dec-07 03:31 010 11.7
2019-Dec-07 03:16 010 12.2
2019-Dec-07 03:01 010 12.2
2019-Dec-07 02:47 010 12.2
2019-Dec-07 02:31 010 12.2
2019-Dec-07 02:15 010 12.2
2019-Dec-07 02:00 010 12.2
2019-Dec-07 01:45 010 12.2
2019-Dec-07 01:30 010 12.2
2019-Dec-07 01:15 010 12.2
2019-Dec-07 01:00 010 12.2
2019-Dec-07 00:47 010 12.2
2019-Dec-07 00:31 010 12.2
2019-Dec-07 00:16 010 12.2
2019-Dec-07 00:01 010 12.8
2019-Dec-06 23:46 010 12.8
2019-Dec-06 23:31 010 12.8
2019-Dec-06 23:16 010 12.8
2019-Dec-06 23:00 010 12.8
2019-Dec-06 22:45 010 12.8
2019-Dec-06 22:30 010 12.8
2019-Dec-06 22:15 010 13.3
2019-Dec-06 22:00 010 13.3
2019-Dec-06 21:45 010 13.9
2019-Dec-06 21:33 323 14.4
2019-Dec-06 21:18 255 15.0
2019-Dec-06 21:01 117 15.6
2019-Dec-06 20:46 105 15.6
2019-Dec-06 20:31 105 16.1
2019-Dec-06 20:15 108 16.7
2019-Dec-06 20:00 126 17.8
2019-Dec-06 19:46 126 17.8
2019-Dec-06 19:31 105 18.3
2019-Dec-06 19:15 097 18.9
2019-Dec-06 19:00 091 18.9
2019-Dec-06 18:45 106 17.8
2019-Dec-06 18:30 100 17.8
2019-Dec-06 18:15 096 17.8
2019-Dec-06 18:01 096 18.3
2019-Dec-06 17:47 114 18.3
2019-Dec-06 17:32 098 18.3
2019-Dec-06 17:18 155 17.8
2019-Dec-06 17:01 098 17.8
2019-Dec-06 16:46 086 18.3
2019-Dec-06 16:30 118 18.3
2019-Dec-06 16:15 117 17.8
2019-Dec-06 16:00 105 16.7
2019-Dec-06 15:45 105 16.1
2019-Dec-06 15:30 105 15.0
2019-Dec-06 15:15 282 13.3
2019-Dec-06 15:00 283 12.2